Location: ?????????
(54.7630°N, 39.4991°E)
Time: 10:00:41
(UTC+00:00)

Cosmos 1437 Rocket - Pass Details

Date: 14 April 2026
Orbit: 440 x 476 km, 81.2° (Epoch: 19 May)

Event Time Altitude Azimuth Distance (km) Brightness Sun altitude
Exits shadow 22:55:53 50° 72° (ENE) 575 3.1 -22.6°
Drops below altitude 10° 22:58:53 10° 22° (NNE) 1,581 6.3 -22.4°
Sets 23:00:59 0° 18° (NNE) 2,463 7.6 -22.3°
